GFSFLT2_925_rhum_000.txt.gz
RH
74 74 78 86 80 74 70 69 71 66 64 61 63 64 68 70 72 93 93 92 92 93 86 83 74 74 74
79 81 80 83 90 87 77 76 79 77 69 64 68 67 83 79 80 95 94 97 96 93 86 78 75 75 74
83 81 84 83 86 91 93 92 86 85 83 77 81 73 92 94 100 98 99 98 94 94 86 79 77 77 74
84 78 78 78 88 96 96 98 98 96 96 92 89 100 100 100 98 100 100 100 99 94 86 81 80 79 75
86 84 87 85 93 86 97 95 96 91 100 97 100 100 100 100 100 99 100 99 98 99 88 81 81 80 77
91 90 86 86 87 90 95 97 97 91 100 99 100 100 100 100 100 99 98 99 98 90 84 78 80 80 78
95 86 88 87 94 94 88 96 91 96 100 98 100 100 100 100 98 98 98 99 96 90 82 81 80 78 76
92 91 93 97 98 99 99 98 100 100 100 98 100 98 100 100 100 99 99 100 97 83 81 82 80 79 77
94 96 99 99 98 100 97 99 98 99 100 94 100 100 100 100 100 99 99 99 82 75 77 79 80 78 77
96 96 99 100 100 100 100 98 99 99 99 94 99 96 97 98 99 99 100 81 70 73 75 76 80 78 78
99 99 100 99 99 100 100 100 100 100 98 93 98 98 97 96 97 98 86 68 70 71 74 80 78 77 76
98 97 99 99 99 100 100 100 100 96 100 98 97 97 96 94 88 70 60 61 70 74 76 70 72 71 70
96 96 99 100 99 99 99 99 98 98 99 99 96 97 95 93 84 78 71 63 53 50 48 46 45 56 66
98 98 100 98 98 97 98 98 97 97 97 97 98 76 87 74 77 92 68 72 67 63 60 63 60 56 54
99 98 99 98 97 97 97 97 97 96 97 96 88 64 56 61 89 73 79 77 74 76 75 64 54 52 54
98 99 98 97 97 97 97 97 96 96 96 100 96 78 59 67 85 84 89 85 73 70 78 83 75 62 65
98 98 98 97 98 97 97 97 97 97 100 100 93 87 87 73 55 95 77 81 82 84 80 85 79 70 72

GFSFLT2_925_rhum_003.txt.gz
RH
73 73 75 77 80 80 79 84 84 83 82 83 79 82 81 90 75 76 74 69 67 86 97 100 96 97 91
79 78 76 75 79 82 85 86 90 90 87 84 84 84 83 93 95 81 75 76 76 89 97 98 99 98 89
82 82 79 79 81 81 86 86 91 92 94 93 95 96 95 99 100 98 88 89 92 98 100 100 99 96 90
79 79 75 76 80 96 94 97 91 84 80 82 88 97 96 84 90 99 100 100 99 98 100 99 98 96 94
81 79 78 78 82 82 86 84 93 92 93 88 94 99 100 97 94 99 100 100 100 100 99 99 98 98 91
80 84 81 82 84 87 90 91 92 84 99 98 98 100 100 100 99 99 98 100 100 100 100 100 99 97 91
86 90 86 84 86 87 82 91 95 93 100 96 95 100 99 99 99 100 100 100 100 100 99 100 99 99 97
90 95 94 94 97 96 95 94 97 98 100 97 98 99 100 99 100 100 100 100 100 100 98 100 100 100 92
90 89 92 95 98 100 93 93 96 95 100 98 100 100 100 100 100 100 100 100 100 100 100 100 97 89 83
92 96 95 98 99 100 100 97 97 97 95 98 99 95 98 99 100 100 100 100 100 100 100 99 89 81 78
95 94 92 94 99 100 100 100 98 97 97 100 98 100 98 96 98 99 99 100 100 100 92 80 77 81 81
95 94 94 96 99 100 99 99 99 99 99 100 98 97 97 96 96 97 98 99 100 91 82 78 80 88 78
94 92 97 99 100 98 98 98 97 97 98 98 98 97 97 96 95 96 96 92 76 71 72 76 78 76 76
95 98 98 95 99 99 98 97 97 96 97 97 97 97 96 97 95 95 94 87 77 69 68 66 60 60 69
97 97 95 93 97 97 97 97 97 96 96 97 95 90 88 92 94 92 92 90 76 66 63 69 62 55 53
97 97 96 96 97 97 97 97 97 96 96 96 96 92 71 78 70 86 77 81 85 75 72 72 70 59 56
98 97 97 97 97 97 97 97 96 96 96 96 88 83 73 73 66 75 78 80 81 88 81 81 80 66 66

GFSFLT2_925_rhum_006.txt.gz
RH
53 46 57 71 80 82 78 78 85 86 83 72 79 91 94 99 98 99 90 91 88 86 85 78 81 92 96
65 65 73 71 73 79 78 79 85 89 91 91 94 99 98 95 97 99 100 100 97 95 92 85 80 95 99
76 75 76 72 78 78 75 70 81 85 87 90 84 80 88 89 100 96 100 100 95 81 99 98 84 94 99
78 77 76 74 72 75 74 74 78 79 88 87 93 82 78 94 96 98 100 100 99 99 91 100 95 99 100
86 76 73 77 80 74 80 81 80 78 84 88 92 97 93 91 98 97 84 97 99 100 92 99 99 100 100
81 79 75 73 82 87 90 89 90 75 79 91 87 95 93 96 94 87 89 83 85 96 99 100 99 100 100
72 78 78 82 98 90 83 92 91 81 81 86 84 94 88 93 96 96 98 91 88 99 100 100 100 100 100
88 99 95 100 87 86 97 98 97 96 93 96 87 96 95 88 95 96 96 94 99 100 100 100 100 100 100
80 79 82 79 85 95 97 97 96 95 95 98 93 98 99 98 98 94 99 100 100 100 100 99 99 99 100
91 91 85 82 87 97 100 98 97 96 98 100 99 98 98 99 100 100 100 100 100 100 100 100 100 100 100
87 91 88 94 100 100 100 100 97 96 91 100 99 100 99 96 98 100 100 100 100 100 100 100 100 100 100
89 88 89 86 93 96 99 100 99 98 97 98 98 98 97 97 96 98 99 100 100 100 100 100 100 100 98
89 90 88 90 99 91 97 95 99 97 96 98 100 98 97 97 96 96 97 98 100 100 100 100 100 100 97
94 92 90 92 96 93 99 99 98 97 96 98 97 98 97 97 96 96 98 96 98 99 99 99 100 100 97
93 91 91 94 93 91 98 98 97 97 96 96 96 97 96 97 96 97 97 96 97 97 95 86 78 77 80
92 93 93 95 93 96 98 98 97 96 96 96 95 92 91 95 97 96 96 96 96 85 72 68 69 52 48
95 95 95 97 95 96 97 97 96 96 96 95 92 94 87 89 90 93 88 92 86 82 64 61 67 59 52

GFSFLT2_925_rhum_009.txt.gz
RH
63 70 61 57 60 65 64 55 70 71 68 68 67 86 90 92 98 93 97 95 99 99 100 100 97 95 92
79 65 62 67 70 72 70 72 70 67 68 79 68 60 76 85 86 88 95 99 100 99 100 96 95 93 98
71 66 68 68 68 70 73 71 73 71 70 70 80 78 70 69 80 92 94 92 97 97 96 97 95 98 99
69 63 62 64 66 64 67 67 73 75 82 82 72 72 79 86 91 94 90 86 89 95 100 96 98 90 77
70 72 66 63 66 67 74 74 77 96 78 77 78 80 86 78 89 97 94 89 84 82 98 99 100 99 100
75 72 70 75 77 82 83 90 96 71 77 86 86 84 80 76 80 84 92 94 95 92 96 91 92 93 98
75 87 75 77 95 97 98 88 83 79 89 91 96 96 93 88 86 84 87 87 92 96 96 96 97 97 98
67 69 77 86 77 84 83 93 92 85 84 97 88 86 85 98 95 90 84 84 92 92 95 99 96 91 94
65 68 70 72 75 88 93 94 87 80 80 90 96 98 99 98 92 91 94 92 94 95 99 100 100 100 100
74 75 79 82 80 84 99 97 95 89 79 93 87 90 97 99 94 98 99 92 91 100 99 100 99 99 100
81 82 83 80 83 86 99 99 97 94 86 96 92 84 93 93 95 98 100 100 100 100 100 100 100 94 100
83 83 83 85 86 91 95 100 99 99 99 99 94 90 95 95 92 98 100 100 100 100 100 100 100 100 100
86 85 85 88 92 93 91 99 95 98 98 96 99 97 97 94 92 93 98 99 100 100 100 100 100 100 100
91 91 88 88 89 87 96 91 96 92 98 96 97 98 95 97 96 93 98 95 99 100 100 100 100 100 100
90 90 89 87 87 87 96 95 94 93 94 98 96 97 98 98 93 96 96 97 98 99 98 98 99 100 99
93 92 92 93 93 95 97 97 94 94 94 97 98 96 96 97 98 96 97 96 97 98 98 95 97 98 100
94 94 94 94 93 95 96 97 93 94 95 97 92 88 92 91 96 98 94 98 98 97 94 85 86 89 89

GFSFLT2_925_rhum_012.txt.gz
RH
51 49 45 43 43 44 48 51 51 50 55 64 59 66 73 83 78 80 88 89 95 95 98 98 98 97 99
53 50 51 51 52 48 48 49 50 50 50 54 60 66 73 75 86 72 77 74 90 93 96 97 100 99 100
62 60 58 54 55 58 55 48 52 56 56 54 62 71 73 83 70 75 79 92 83 84 89 93 93 97 99
67 66 63 58 53 53 53 58 63 63 66 70 68 78 70 73 80 82 94 77 90 94 92 92 93 88 95
72 65 54 53 56 60 61 60 69 66 79 70 65 71 74 74 74 80 80 77 85 93 92 96 88 97 96
77 64 56 58 60 62 69 75 81 67 64 70 68 76 77 74 80 88 89 87 88 92 87 87 92 93 96
66 63 62 66 70 80 84 77 75 69 72 82 78 82 77 78 75 79 88 96 94 94 88 84 87 92 95
56 70 87 78 67 73 85 89 87 79 76 96 78 77 74 94 95 93 96 98 98 95 97 96 98 100 98
66 64 61 64 71 87 90 90 86 76 72 92 85 90 93 75 78 93 99 100 100 98 99 100 100 96 99
65 63 68 72 71 78 93 94 90 88 71 96 83 86 85 72 93 86 87 74 99 100 100 96 99 100 99
68 73 73 74 76 80 88 96 94 92 80 94 92 88 84 85 76 78 86 93 100 100 100 100 100 97 100
75 76 77 80 84 84 88 92 96 97 96 100 97 91 88 86 82 74 93 99 100 100 100 100 100 100 100
82 82 81 84 88 88 90 91 91 97 98 100 99 96 95 90 86 91 98 98 100 100 100 100 100 100 100
90 90 88 85 86 84 94 91 94 92 98 96 96 99 94 95 96 95 99 98 99 100 100 100 100 100 100
93 91 88 86 88 91 94 95 96 94 94 98 96 96 98 98 94 97 96 98 99 100 99 99 100 100 100
93 92 93 93 93 94 97 97 94 93 93 95 96 96 96 96 98 96 97 98 98 99 98 92 98 100 100
94 94 94 94 94 95 96 95 93 94 92 93 88 93 93 92 96 98 95 98 98 97 96 90 92 100 100

GFSFLT2_925_rhum_015.txt.gz
RH
46 49 55 51 51 53 54 54 50 46 44 46 46 50 52 56 59 61 64 70 71 79 75 83 92 91 93
55 57 55 55 56 57 53 48 48 49 43 43 50 58 55 56 60 74 75 76 86 74 74 78 82 92 96
64 60 59 63 62 56 49 47 49 50 53 48 47 57 62 66 66 69 78 78 87 82 92 98 88 90 98
63 67 68 64 62 56 52 50 53 54 55 56 56 56 65 64 70 60 69 74 73 82 84 84 91 94 98
78 79 72 62 60 57 55 59 64 64 66 64 64 64 66 59 61 66 69 71 73 82 90 84 91 99 98
95 91 67 61 54 62 71 81 83 64 64 67 67 68 68 68 71 73 69 74 77 80 82 91 95 94 93
70 71 58 62 80 89 86 70 69 66 77 78 82 79 80 73 66 68 78 88 89 91 95 96 91 93 95
61 57 64 80 78 66 70 90 88 81 73 94 81 95 74 79 70 78 69 84 93 100 100 100 100 97 94
61 59 58 59 62 73 92 92 87 80 73 78 86 88 79 82 75 80 99 86 98 98 90 96 99 97 98
66 63 64 68 66 74 88 94 92 89 71 84 87 87 92 71 83 75 80 93 96 98 100 100 100 100 100
65 70 72 73 75 79 84 95 94 92 82 86 94 92 90 92 82 89 85 99 100 100 100 91 95 99 100
75 79 78 80 82 86 89 93 95 94 94 98 96 96 96 93 87 76 82 100 100 100 100 100 100 100 100
89 85 84 86 89 91 95 97 95 93 96 99 99 98 98 95 91 85 94 95 99 100 100 100 100 100 100
91 90 88 89 92 95 96 95 96 91 98 97 94 96 97 94 94 92 98 98 99 99 100 100 100 100 100
93 93 92 92 93 95 96 96 96 96 94 96 94 96 97 99 98 98 98 98 99 99 99 99 100 100 100
94 94 94 94 94 95 97 97 96 95 95 96 96 94 96 96 99 98 98 98 99 99 100 97 98 100 100
96 95 95 95 95 95 95 96 94 86 89 95 96 95 96 95 96 98 98 98 99 98 99 99 98 100 100

GFSFLT2_925_rhum_021.txt.gz
RH
53 55 58 67 62 64 67 65 65 65 60 62 53 49 49 47 47 49 53 57 58 56 53 62 72 70 68
61 72 72 66 69 75 69 76 80 78 60 54 50 48 48 52 52 56 60 52 54 57 60 50 55 78 78
82 66 73 85 92 95 70 67 64 58 53 51 49 53 58 65 58 53 54 59 62 57 57 68 89 82 69
76 90 76 83 73 58 55 58 68 66 60 61 64 70 58 57 59 62 64 65 65 62 57 70 70 69 62
94 93 71 62 60 60 68 94 73 72 77 83 73 65 69 70 70 69 71 70 83 85 75 70 79 73 76
95 78 65 66 67 79 86 89 88 69 70 76 72 74 75 75 72 73 73 62 64 71 89 80 71 68 65
70 72 72 72 95 95 84 83 85 82 81 82 74 78 78 71 71 67 66 74 79 80 76 71 67 63 64
70 70 91 86 66 68 80 92 90 80 72 87 73 76 74 75 74 72 83 88 94 87 89 92 90 90 84
84 76 62 63 67 83 93 93 86 75 73 81 84 84 81 82 80 78 78 79 80 77 75 75 77 75 75
66 68 72 76 77 83 95 94 92 90 68 86 90 90 91 74 77 72 77 80 83 90 89 86 86 86 87
73 77 81 82 82 90 97 98 94 92 82 93 93 91 92 91 81 81 84 89 89 98 99 100 100 98 92
83 85 83 90 94 97 98 98 99 98 97 99 97 97 94 92 88 74 83 96 99 98 99 99 98 100 99
89 88 90 96 99 98 97 96 97 94 96 98 98 97 98 95 94 89 93 87 98 100 100 99 100 100 100
94 93 95 96 96 97 97 96 97 85 82 93 98 98 97 99 100 93 96 97 95 100 100 100 100 100 100
95 95 94 94 94 94 97 96 95 93 90 91 93 87 92 99 97 96 96 97 99 100 100 99 100 100 100
95 95 95 95 95 95 94 96 95 93 94 96 96 87 83 85 98 97 98 98 99 100 100 97 98 100 100
97 96 96 96 91 94 94 95 93 94 96 99 97 96 95 95 92 99 98 98 100 98 99 99 97 100 100

GFSFLT2_925_rhum_024.txt.gz
RH
59 61 68 71 69 69 71 77 82 76 57 53 52 50 52 55 56 53 50 49 55 62 61 65 64 66 66
81 74 63 62 66 85 92 70 77 56 51 52 59 52 50 52 51 53 61 60 69 80 74 65 61 59 61
67 65 66 79 86 78 60 55 54 53 54 56 57 57 59 67 72 70 84 61 54 54 56 55 58 67 58
81 92 81 92 72 62 58 60 61 64 83 68 66 63 62 62 60 60 62 64 63 63 60 69 64 58 56
77 81 84 65 64 65 68 68 82 84 65 67 66 67 69 69 68 66 67 67 71 72 75 79 86 90 78
94 71 70 68 70 74 86 93 76 67 66 76 75 74 74 74 73 71 71 70 70 82 87 73 67 72 76
78 76 74 81 97 91 80 82 86 81 84 81 75 75 72 72 70 70 71 71 72 84 89 87 87 86 86
65 77 90 74 68 79 92 96 93 80 73 90 78 79 77 78 76 76 76 75 78 86 94 95 90 81 76
82 70 66 67 75 93 93 92 85 74 73 83 83 85 84 85 82 79 78 77 73 75 81 83 86 98 99
70 69 76 79 79 87 98 94 92 89 68 88 88 88 91 71 71 72 79 78 77 89 94 92 86 90 99
78 82 83 82 84 93 98 98 94 92 82 94 93 91 94 90 76 73 79 84 90 98 99 99 99 100 99
88 84 86 93 95 97 97 97 99 98 96 100 96 96 94 90 86 73 79 86 98 98 99 99 99 99 99
89 88 92 97 99 98 97 95 96 96 96 98 99 97 97 93 92 88 91 84 90 99 99 100 100 100 98
94 94 93 92 93 97 97 95 97 88 84 90 97 98 96 96 98 92 89 96 96 99 100 100 100 100 100
95 94 92 91 92 92 97 96 94 93 91 89 91 96 94 97 94 90 96 96 99 100 99 99 100 100 100
96 95 95 95 94 94 95 96 95 93 94 95 97 92 86 80 99 96 97 97 99 100 99 97 96 100 100
97 96 96 96 92 93 93 94 92 95 94 98 96 96 94 94 86 99 98 99 99 98 99 99 98 98 100

GFSFLT2_925_rhum_027.txt.gz
RH
68 69 68 62 61 63 65 69 78 90 64 53 52 53 52 53 68 71 69 63 66 67 63 63 67 65 59
84 67 63 64 68 74 87 98 78 62 53 52 54 55 59 69 61 61 68 68 64 58 58 58 66 73 73
74 71 73 82 83 89 74 59 57 55 57 59 61 62 64 60 64 72 76 78 77 84 87 80 68 63 60
84 89 75 90 80 64 59 59 64 67 69 79 69 60 60 61 62 61 62 63 63 63 66 62 63 65 62
81 92 80 64 63 66 69 74 86 92 75 65 67 66 69 71 70 69 69 69 70 72 75 80 82 77 72
84 74 71 72 71 76 95 85 85 70 70 85 78 76 74 74 72 73 72 71 74 83 88 88 87 82 80
75 76 73 79 98 95 89 90 85 79 87 90 78 77 74 74 72 74 74 74 74 75 76 84 81 75 73
68 81 95 81 72 82 95 96 91 79 73 91 78 80 78 79 78 78 78 75 73 73 73 71 78 88 90
88 74 68 72 81 97 93 92 84 74 74 80 80 84 84 83 82 78 75 70 67 69 74 75 77 76 86
72 73 79 83 81 91 98 94 91 88 68 86 88 90 90 70 68 76 79 80 79 81 89 89 86 95 100
83 84 86 83 86 92 98 98 94 92 83 94 93 89 91 89 76 74 77 79 85 92 98 98 99 99 99
89 87 87 91 94 97 100 99 98 97 96 99 96 96 93 90 86 74 79 88 96 98 99 100 99 99 100
90 90 93 96 98 97 96 96 96 95 95 97 100 98 97 94 92 87 93 83 87 98 99 100 100 100 98
94 94 95 94 94 94 96 96 97 86 83 88 97 99 96 94 96 93 91 96 96 99 100 100 100 100 99
96 96 94 93 93 92 97 96 94 90 90 91 92 96 95 97 95 90 95 97 99 100 99 98 99 100 100
98 97 96 95 95 93 94 95 94 92 94 94 97 92 80 73 96 97 96 98 99 100 99 98 94 99 100
99 98 97 97 93 93 94 94 91 91 94 98 97 95 93 92 83 96 98 98 99 96 99 98 98 98 100

GFSFLT2_925_rhum_030.txt.gz
RH
71 71 78 73 68 69 72 74 77 75 85 64 60 54 52 59 68 69 68 72 73 72 80 78 67 78 75
82 76 70 72 75 82 92 85 84 79 56 55 55 55 56 60 70 71 69 69 68 66 69 66 62 65 68
75 74 77 79 96 86 72 60 58 58 59 60 61 64 69 76 76 74 73 75 79 73 69 70 74 78 76
79 84 96 81 67 64 63 65 66 70 76 73 70 67 64 62 64 63 64 65 65 66 69 70 70 63 63
90 85 72 66 69 68 71 75 88 74 71 71 72 70 71 74 72 70 71 72 71 72 78 80 84 81 74
79 72 72 72 72 79 95 85 85 72 74 87 82 80 78 75 73 74 73 72 72 73 74 84 78 80 85
73 74 74 79 98 94 87 89 86 82 88 90 79 78 74 73 71 74 75 75 76 79 82 87 80 78 76
72 83 97 83 76 83 98 97 92 80 73 91 78 78 76 77 76 76 77 75 76 82 85 86 88 88 82
89 78 72 76 82 94 92 93 85 75 75 80 80 83 83 83 81 78 73 71 72 76 78 75 75 76 77
74 73 80 84 84 86 94 95 90 89 67 89 88 90 88 66 66 74 76 81 82 84 88 88 94 99 99
83 84 87 86 89 94 98 98 95 92 83 94 93 90 93 90 76 77 77 80 92 98 99 99 99 99 99
89 88 89 93 96 100 100 100 100 97 96 100 96 96 93 89 86 76 80 88 95 96 99 99 100 99 99
91 91 94 98 100 99 96 95 96 95 94 96 99 98 98 94 93 89 95 86 89 94 98 100 100 100 99
95 96 98 96 97 96 99 97 98 88 84 88 97 98 96 94 97 94 93 96 95 100 100 100 100 100 100
97 97 96 95 95 94 98 97 95 91 90 88 91 96 92 95 96 88 95 96 99 99 99 98 99 100 99
99 98 97 97 96 95 97 97 95 92 93 93 97 93 81 70 87 97 91 97 98 99 99 98 95 100 99
100 99 98 97 96 95 95 95 92 91 95 94 97 95 93 93 72 73 98 97 98 97 98 98 98 100 99

GFSFLT2_925_rhum_033.txt.gz
RH
64 66 66 64 61 66 72 73 74 66 64 62 61 61 61 63 68 71 72 70 66 69 72 75 83 86 82
72 70 61 64 69 80 77 71 64 60 59 61 63 65 63 64 65 66 66 70 73 79 76 69 71 70 63
69 67 72 80 76 66 56 56 58 60 62 64 66 68 70 71 70 68 68 67 75 70 71 70 73 75 75
74 92 74 67 64 61 60 62 65 69 74 73 69 67 67 67 68 69 69 70 69 69 68 75 81 80 68
90 76 69 60 61 64 67 73 79 71 70 69 65 69 73 72 72 72 73 75 75 74 77 80 79 75 75
80 66 61 62 67 73 90 83 81 68 68 74 73 73 70 69 69 72 73 73 74 76 80 81 80 86 82
68 67 71 73 95 94 85 83 81 77 80 80 72 70 68 68 68 73 76 77 78 80 82 80 83 81 82
71 77 92 92 78 81 90 93 89 76 69 82 72 72 72 73 73 76 77 78 80 81 81 81 82 80 80
86 85 74 76 83 93 91 91 82 72 74 74 72 78 81 78 75 71 72 78 85 89 93 94 93 91 91
71 69 75 78 84 84 95 94 90 86 63 82 86 84 85 62 67 75 77 79 86 87 92 96 98 99 99
74 76 81 81 82 89 96 97 94 91 81 94 91 90 90 86 77 76 79 82 96 99 97 96 97 100 99
81 86 87 92 95 99 100 100 100 98 95 99 96 96 93 88 83 74 78 88 95 99 99 98 99 99 99
88 90 93 98 100 100 99 99 100 98 92 96 100 98 98 94 92 87 86 87 93 96 99 100 100 100 99
92 94 96 97 97 97 99 98 97 90 87 92 97 99 96 94 95 92 90 95 95 99 99 99 100 100 100
96 96 95 94 94 94 97 96 95 92 91 89 92 95 96 94 94 86 85 94 96 99 99 97 95 100 98
97 97 96 96 95 94 96 97 94 92 92 92 93 92 82 68 68 94 92 91 96 99 99 97 95 99 93
98 98 98 96 94 94 94 94 92 91 91 91 94 94 90 89 71 69 98 97 97 96 98 98 98 100 92

GFSFLT2_925_rhum_036.txt.gz
RH
45 47 52 51 48 52 55 60 57 52 55 57 61 64 67 68 70 71 76 78 80 75 74 74 72 71 70
56 57 54 52 58 65 55 50 46 48 53 60 64 64 66 68 72 73 73 72 78 80 79 79 77 77 72
65 57 56 67 61 57 50 47 50 52 54 58 62 66 70 69 68 67 68 69 73 74 74 70 71 77 69
64 68 86 65 54 48 48 53 56 60 64 63 62 62 64 63 64 68 70 70 71 72 74 73 76 75 71
76 89 65 54 46 50 58 62 71 64 62 62 57 61 65 64 64 64 65 68 70 75 78 83 78 81 73
85 64 52 48 56 64 77 90 74 63 61 70 68 66 65 63 61 64 68 70 74 75 77 78 81 80 86
67 55 54 61 78 94 80 75 74 72 74 74 65 62 63 63 65 68 73 76 82 84 85 86 84 84 82
58 61 70 87 88 75 81 84 85 75 66 75 68 68 68 69 70 73 75 77 80 86 90 92 93 90 86
67 79 80 69 73 83 90 87 82 72 72 71 70 76 78 76 71 63 67 71 80 84 93 97 99 99 98
76 59 60 64 71 74 83 94 89 86 63 79 86 80 81 62 66 76 76 77 78 80 86 97 99 100 100
61 63 67 70 73 79 88 98 95 91 81 92 91 88 89 84 76 76 78 82 83 87 92 93 95 99 100
69 75 80 85 90 95 98 100 100 100 99 100 95 95 93 88 82 74 76 84 89 94 98 99 99 98 97
84 85 87 91 96 96 96 97 98 99 98 98 99 98 97 93 90 86 87 87 90 94 99 100 100 100 99
88 88 91 92 92 93 95 95 94 90 89 92 95 99 96 93 91 90 90 94 89 97 99 99 100 100 100
92 92 91 90 92 93 94 95 93 89 89 89 91 95 95 97 96 89 83 86 90 94 99 97 94 100 98
96 94 94 93 93 92 93 95 93 88 88 90 92 89 81 76 71 84 86 91 92 96 99 98 94 96 100
97 96 96 96 92 93 93 93 90 89 88 89 92 92 92 88 69 70 88 95 96 94 92 98 98 98 100

GFSFLT2_925_rhum_039.txt.gz
RH
48 49 51 53 54 51 54 57 58 52 51 52 56 60 64 65 67 71 74 70 74 75 77 85 78 76 75
53 56 58 56 54 59 63 59 52 47 48 54 58 60 63 64 67 72 71 73 76 74 73 72 78 75 75
58 57 58 62 69 72 55 50 46 50 52 54 59 63 64 63 64 64 65 65 67 69 70 73 72 75 78
65 71 71 75 67 55 49 51 58 58 62 65 60 61 61 59 64 67 67 67 67 68 69 70 74 74 76
81 81 82 64 57 51 56 65 68 77 67 65 61 64 68 65 64 64 65 66 69 73 77 78 81 86 81
92 78 74 60 55 64 75 82 88 66 67 71 70 72 67 64 62 64 68 70 73 74 78 82 85 84 83
73 64 61 62 69 81 90 86 77 75 76 86 76 70 67 66 67 69 73 77 80 80 82 84 89 89 88
58 60 62 72 96 98 83 82 83 78 74 84 73 73 72 73 72 75 77 76 73 74 76 81 84 92 97
60 67 75 70 64 68 86 90 84 76 76 80 78 84 80 80 76 68 69 71 79 80 81 82 85 90 99
79 73 60 61 65 69 82 96 92 87 71 85 91 90 88 65 64 78 79 80 79 83 82 85 92 100 100
68 63 67 72 77 83 88 97 96 92 83 92 93 92 94 89 78 78 78 80 84 88 95 91 93 98 100
69 75 79 85 88 90 95 96 96 98 94 100 96 97 94 90 85 73 76 83 88 92 95 99 98 99 100
83 85 87 90 92 95 92 96 91 93 95 98 100 98 98 94 91 88 81 84 90 97 98 99 98 99 100
90 90 92 93 92 93 98 97 97 91 87 90 92 98 97 96 96 92 85 90 90 99 96 100 94 93 98
96 97 95 94 93 93 96 97 96 88 88 88 90 92 97 100 96 89 87 90 85 88 98 96 91 88 96
98 98 97 96 95 96 95 96 94 90 90 88 92 94 86 79 72 83 78 82 85 90 98 98 90 82 92
99 98 98 98 93 95 94 95 92 89 88 89 93 95 94 90 69 71 88 94 95 95 87 90 96 92 98

GFSFLT2_925_rhum_042.txt.gz
RH
51 54 55 56 56 58 56 59 63 62 58 57 54 57 60 62 64 68 70 75 74 78 80 83 75 80 78
61 60 60 60 60 63 69 74 67 57 54 52 58 60 61 65 66 67 69 69 70 74 75 72 73 76 77
69 68 67 71 76 78 79 61 55 52 55 58 60 68 68 66 65 64 66 68 67 67 69 71 73 74 78
76 83 84 89 81 77 67 59 59 65 65 74 76 68 67 64 69 72 72 71 70 69 71 75 79 79 78
83 76 77 77 78 75 65 67 67 72 82 74 69 72 74 72 74 72 72 70 71 72 76 76 75 80 84
86 90 85 76 66 69 72 76 82 80 74 78 74 77 79 79 74 72 73 73 74 78 79 78 83 88 87
80 75 67 66 66 75 83 94 92 82 82 84 78 80 77 75 76 78 76 80 81 80 80 81 81 81 85
67 66 66 69 83 99 95 85 85 84 80 88 78 78 79 81 79 80 79 80 74 74 77 81 83 84 87
67 71 74 74 70 70 88 88 84 78 80 85 82 92 88 85 69 65 73 72 81 82 82 83 84 86 89
79 74 70 66 71 75 81 96 93 86 73 87 92 94 87 69 66 73 76 83 82 83 83 88 91 93 96
71 71 72 76 80 83 89 98 96 92 84 93 94 93 93 91 80 79 80 78 82 84 89 93 94 93 95
72 78 85 90 91 92 94 95 95 100 97 100 97 98 94 90 85 75 78 83 88 88 91 88 94 96 94
88 92 93 94 97 100 94 97 97 97 94 92 98 99 98 94 91 90 84 86 88 92 88 96 98 94 97
91 95 98 99 99 99 99 99 98 93 88 88 92 97 97 97 96 92 88 94 88 91 93 93 96 90 96
98 98 98 97 97 96 99 97 97 92 90 88 88 88 93 99 97 92 91 92 93 92 90 94 90 91 93
99 99 98 98 97 98 98 99 96 92 92 90 92 96 88 80 81 96 98 97 93 92 94 97 93 81 84
100 100 99 98 95 97 97 96 94 91 90 94 98 96 94 89 69 71 90 96 93 94 88 90 94 89 89

GFSFLT2_925_rhum_045.txt.gz
RH
58 60 64 62 62 61 62 65 68 69 67 63 62 61 61 64 64 66 74 74 75 77 82 82 81 80 80
67 69 70 69 71 75 73 77 78 74 64 60 59 62 64 69 71 79 67 75 76 74 72 72 73 80 79
74 74 76 79 84 88 90 83 74 68 60 60 64 70 76 72 70 70 70 73 72 71 70 72 72 74 78
78 83 86 75 77 83 79 75 70 68 67 70 75 78 71 69 74 76 78 78 76 72 75 80 84 85 80
89 87 78 78 85 76 78 74 73 73 75 77 87 76 78 78 76 78 84 78 74 78 81 82 86 91 88
90 82 81 79 74 72 75 79 82 77 86 90 80 81 81 81 82 79 77 80 81 84 83 84 84 86 87
86 87 88 75 72 81 92 97 92 85 87 87 79 80 78 79 77 79 82 82 81 80 82 81 82 83 84
84 76 73 76 91 92 91 86 87 83 79 86 80 81 81 82 83 83 83 82 79 75 76 80 82 85 83
72 76 78 75 74 77 86 88 86 80 80 85 82 92 87 86 70 66 76 75 76 82 84 84 83 85 87
76 68 63 66 78 80 83 95 94 89 71 88 92 94 86 69 68 71 74 80 86 84 84 85 88 90 95
64 69 74 79 85 87 93 99 97 94 84 94 94 94 95 91 82 80 81 77 81 86 90 93 95 97 94
77 82 89 93 92 94 96 98 98 100 96 99 96 98 95 91 86 76 78 84 89 89 92 92 96 96 96
92 92 94 96 98 100 92 97 97 94 90 90 100 100 99 94 91 90 86 85 89 92 84 95 99 97 97
95 98 100 100 100 99 100 100 100 94 85 88 89 93 98 97 98 92 87 92 90 94 92 95 96 98 96
100 100 100 99 98 97 100 100 98 93 93 88 87 92 97 100 98 93 92 93 92 92 95 96 92 92 92
100 100 100 100 100 98 98 98 96 93 95 94 95 96 90 84 88 97 96 95 93 95 95 97 90 84 85
100 100 100 100 96 96 97 98 94 93 92 93 98 96 94 90 69 71 93 97 96 95 94 93 94 89 89

GFSFLT2_925_rhum_048.txt.gz
RH
55 54 60 63 65 67 60 63 64 72 74 72 71 68 66 65 65 68 68 75 79 76 74 80 79 76 78
63 63 67 69 72 72 73 71 78 80 80 72 68 67 68 70 71 75 83 74 71 74 74 71 67 77 77
74 70 72 72 77 79 82 82 76 78 70 69 69 74 78 76 73 73 72 74 72 72 70 74 75 75 78
72 76 76 80 77 80 82 75 75 74 74 77 78 80 76 76 78 79 80 80 79 77 76 82 79 86 77
80 82 92 83 81 81 82 78 77 78 75 78 76 87 84 83 81 79 84 86 80 78 82 80 84 90 90
83 92 91 86 85 87 82 87 87 76 86 86 83 83 82 81 83 83 81 80 80 78 83 84 83 88 88
85 89 94 84 81 87 96 100 92 87 88 86 81 82 80 81 80 80 82 84 84 83 79 78 84 90 91
86 82 76 82 95 89 83 84 89 84 82 87 79 82 80 78 82 84 85 86 84 81 77 75 78 80 82
76 79 81 77 73 79 86 92 88 83 82 87 85 84 85 85 69 60 80 78 76 79 82 83 82 84 86
76 68 60 63 79 81 85 97 96 90 69 82 89 93 86 67 68 67 76 77 86 87 86 84 85 85 87
64 67 71 77 81 85 91 100 99 95 86 95 94 95 95 91 82 81 81 78 76 82 91 92 93 93 94
83 88 92 91 87 92 88 95 97 100 97 98 96 99 95 91 87 77 78 85 89 93 91 93 97 97 95
96 96 94 96 94 98 92 92 94 89 91 91 100 99 99 94 92 90 90 85 88 92 90 92 96 97 98
96 99 100 100 100 99 100 100 100 93 81 88 93 96 99 99 98 93 90 93 87 93 97 98 96 95 94
100 100 100 100 100 98 100 100 99 95 93 87 87 94 99 100 99 96 94 94 94 96 98 97 93 95 95
100 100 100 100 100 100 99 99 97 94 95 94 96 98 89 83 93 100 96 96 94 95 97 96 93 90 91
100 100 100 100 98 98 98 98 95 94 94 94 98 97 94 90 70 72 93 98 97 96 94 92 94 90 89

GFSFLT2_925_rhum_051.txt.gz
RH
53 50 56 60 62 62 61 58 60 75 77 78 77 75 71 69 68 68 72 78 79 82 82 84 73 78 78
59 60 63 62 65 68 68 65 70 71 82 79 74 73 75 74 72 77 83 84 78 74 69 77 75 77 79
73 69 69 68 72 78 74 77 76 75 74 76 75 78 81 78 74 73 74 76 74 72 72 71 70 68 78
69 74 73 74 82 84 84 80 80 75 77 81 82 82 76 77 81 84 85 83 81 79 77 75 72 80 80
78 78 85 90 88 81 91 88 87 82 75 78 77 84 80 81 78 82 86 88 83 80 82 82 81 85 84
78 90 95 87 88 92 92 96 88 78 84 86 85 83 76 76 78 85 84 82 81 78 80 84 83 87 84
83 84 90 87 84 94 98 99 90 85 86 87 83 84 70 72 76 83 84 85 83 82 80 84 83 87 89
82 80 78 85 96 94 87 83 89 88 83 86 77 81 74 76 79 84 85 85 85 82 78 76 76 80 82
77 83 84 79 74 79 86 96 90 84 85 88 87 80 82 82 65 58 81 81 77 77 80 82 82 85 86
81 73 62 64 72 79 85 97 96 89 71 83 90 94 84 69 68 66 71 72 84 87 87 84 84 84 89
68 68 69 71 75 81 88 100 100 96 88 96 94 96 95 91 86 80 80 77 75 79 86 92 93 93 97
83 86 88 83 82 86 87 91 97 100 96 100 96 99 95 91 87 78 79 83 88 92 86 86 95 97 93
96 94 92 94 92 91 90 92 94 87 88 89 100 100 99 94 92 90 92 86 88 95 91 86 88 91 99
95 98 100 100 100 97 100 100 100 94 80 85 92 96 98 98 99 93 91 95 87 93 96 98 100 99 100
100 100 100 100 100 96 99 100 100 97 95 84 85 91 97 100 99 96 95 96 95 97 100 97 94 95 92
100 100 100 100 100 100 100 100 99 97 98 94 96 99 90 83 92 100 96 97 95 95 96 98 93 88 88
98 99 99 98 99 100 100 100 97 96 94 94 99 97 94 90 69 72 95 97 97 97 95 94 93 89 90

GFSFLT2_925_rhum_054.txt.gz
RH
50 46 49 53 56 59 64 65 59 57 77 78 80 78 75 74 72 70 72 74 74 75 77 78 90 78 76
57 56 59 58 62 67 69 68 62 59 81 82 79 80 80 78 77 79 82 81 77 78 77 77 81 75 76
66 66 67 66 70 74 75 70 71 68 77 82 82 85 86 82 78 76 75 75 76 74 74 74 71 70 68
68 70 73 74 80 85 87 81 81 74 71 74 84 81 80 78 82 85 86 86 83 80 79 78 76 75 71
75 80 82 84 90 84 91 91 93 80 73 74 76 78 69 70 76 80 86 90 87 81 77 78 84 86 86
77 84 92 87 85 90 94 99 87 75 81 86 82 82 76 71 70 87 86 83 84 82 79 84 86 88 89
88 87 86 81 80 91 99 100 95 87 87 89 81 81 70 64 70 82 83 86 87 83 81 80 80 82 86
83 79 78 85 91 91 88 86 90 89 86 90 76 79 71 72 66 81 83 84 85 83 79 77 80 85 81
82 88 87 82 78 83 87 97 92 85 86 90 89 80 82 79 64 61 78 78 77 79 81 83 81 80 84
84 74 62 64 70 80 89 99 98 90 71 81 84 92 91 66 67 68 69 70 84 88 88 86 87 84 88
70 68 70 73 76 82 88 100 100 97 88 96 95 96 95 92 84 80 81 75 74 78 85 93 95 95 95
83 83 86 84 78 80 81 85 94 99 85 100 97 99 96 91 87 78 79 83 89 92 88 86 90 95 95
96 94 93 87 84 81 81 84 87 83 82 85 97 100 100 95 93 91 92 84 88 92 85 84 84 89 96
96 92 89 90 90 92 96 91 100 86 82 83 88 95 98 99 99 94 91 94 87 89 94 95 98 100 100
95 95 92 96 93 92 96 99 100 97 96 84 86 93 98 98 96 94 94 95 95 96 100 99 96 97 98
95 95 98 98 99 99 100 100 100 98 98 96 98 99 88 83 89 98 98 99 96 96 99 99 94 91 94
96 96 99 98 100 100 100 100 98 97 97 98 99 97 94 89 70 75 98 97 99 97 96 95 95 90 90

GFSFLT2_925_rhum_057.txt.gz
RH
81 54 51 46 50 52 58 64 71 73 76 78 81 80 78 78 77 75 73 75 78 80 80 84 85 87 88
63 52 52 54 56 64 66 68 74 70 77 85 83 83 84 83 82 77 78 77 80 79 79 78 76 79 78
74 69 67 62 71 76 80 82 80 69 79 80 83 84 88 83 82 79 79 78 78 79 78 75 71 72 71
75 74 76 78 80 86 78 72 73 77 80 79 85 80 78 80 83 85 86 87 86 83 81 78 76 78 76
77 80 81 77 74 75 77 78 82 84 80 76 75 76 74 78 79 81 82 88 89 85 82 86 87 89 88
86 81 77 80 78 79 86 92 81 72 79 76 75 73 72 74 74 67 83 84 85 82 82 85 85 88 84
85 79 80 77 83 96 91 90 88 80 78 77 73 73 73 71 74 73 84 86 86 85 80 79 83 82 84
84 82 82 88 95 97 88 83 83 78 79 82 72 69 71 74 78 83 78 83 83 82 79 77 76 78 80
84 89 90 85 82 85 90 87 85 74 77 80 79 77 77 75 72 66 78 78 78 80 82 84 84 82 84
85 72 64 65 68 84 94 100 96 85 80 85 80 86 79 67 72 75 78 78 84 87 88 86 88 87 91
72 74 74 74 78 82 94 100 100 97 87 96 93 93 93 87 81 80 79 78 82 86 92 96 97 98 97
85 86 88 79 78 81 82 89 97 99 80 100 98 100 97 91 85 77 80 84 90 96 97 94 90 97 96
94 97 91 83 82 80 80 85 91 83 80 82 92 99 100 95 92 90 90 84 90 93 97 99 100 100 100
99 100 94 92 92 90 98 96 100 86 86 82 86 92 100 100 100 94 91 94 86 93 96 97 97 97 100
100 100 100 99 94 96 100 100 100 98 95 85 94 100 100 100 99 95 93 92 92 95 97 97 96 96 96
100 100 100 100 100 97 100 100 100 98 99 96 98 99 89 84 87 100 97 96 95 97 99 98 92 89 95
95 95 98 100 100 100 99 99 95 96 96 97 99 97 93 88 71 77 98 94 95 94 94 94 95 93 93

GFSFLT2_925_rhum_063.txt.gz
RH
91 91 91 94 98 96 71 66 60 66 67 66 72 75 78 82 82 81 80 78 77 74 70 71 70 76 81
99 99 97 95 84 81 80 74 65 62 66 71 77 80 82 83 84 84 82 81 79 78 75 73 71 71 71
98 85 84 87 80 70 69 62 61 62 59 56 63 71 78 82 84 85 85 84 83 82 82 80 78 77 76
85 86 83 71 67 67 66 59 58 56 60 68 70 70 71 71 72 75 78 80 81 83 83 82 82 79 75
84 72 67 65 60 56 58 58 61 67 70 64 60 62 64 64 63 64 65 70 76 79 80 80 76 81 78
78 69 60 57 57 58 69 76 75 70 71 76 70 65 64 63 63 64 69 73 76 79 81 81 80 76 78
73 65 61 61 68 71 77 77 78 77 74 71 70 68 65 63 64 68 73 76 79 82 83 84 83 80 77
73 71 69 66 68 73 79 82 76 74 70 72 69 70 69 70 71 74 76 80 80 81 84 85 84 82 79
73 78 82 85 86 87 86 83 82 78 77 80 75 75 77 73 60 68 72 73 76 80 82 83 84 83 82
74 73 70 66 69 79 84 86 87 89 75 78 82 89 94 67 71 70 72 79 82 80 82 83 83 85 89
68 62 64 68 72 75 79 84 95 96 93 97 96 98 93 90 85 83 80 78 86 88 89 92 94 93 91
68 72 78 85 90 97 99 100 100 100 100 100 99 99 98 95 92 83 85 90 93 93 94 96 96 97 96
81 83 89 97 100 100 99 100 100 100 100 100 100 100 100 98 95 94 92 90 91 92 93 95 95 93 98
85 88 93 96 97 98 100 99 100 98 96 99 98 97 97 97 100 95 91 95 92 96 96 99 99 100 99
91 95 97 96 97 99 100 97 99 93 88 93 96 95 97 97 100 95 95 97 96 98 99 100 98 97 98
99 100 100 99 100 100 100 99 99 90 89 88 88 94 98 95 90 99 95 92 90 94 95 98 93 89 92
100 100 100 100 100 100 98 99 97 87 88 87 91 98 94 91 74 74 75 80 86 91 94 96 98 94 95

GFSFLT2_925_rhum_066.txt.gz
RH
90 89 84 81 82 86 87 89 77 70 72 70 71 73 78 81 83 84 83 82 80 78 76 72 70 75 77
100 99 92 89 92 96 82 63 56 59 67 68 72 72 71 77 82 83 83 82 81 79 76 76 74 72 72
98 95 96 80 68 64 64 66 63 62 64 59 61 70 76 80 82 83 84 84 84 83 81 80 79 78 77
81 80 74 72 71 68 65 63 60 58 58 63 72 73 70 69 71 74 74 74 75 77 78 79 80 79 77
86 81 74 71 68 62 61 62 62 58 66 70 66 61 58 60 63 67 70 72 73 75 77 78 76 76 76
81 77 69 61 59 65 71 72 80 72 72 75 71 68 62 64 66 72 71 72 75 78 78 79 78 77 78
81 74 69 68 67 67 68 73 77 74 78 77 73 71 64 64 67 76 78 80 82 83 83 83 81 78 80
77 75 73 70 72 79 83 83 81 73 78 80 72 67 63 65 59 69 78 83 80 79 81 83 81 82 82
69 73 80 83 85 86 88 86 89 82 82 85 79 76 72 62 59 64 78 77 83 88 86 82 82 82 84
76 74 72 65 70 71 75 83 84 90 85 84 87 95 90 74 76 75 76 73 88 90 90 89 88 87 90
75 64 65 68 71 74 77 81 84 90 92 96 98 96 95 93 87 90 86 79 82 85 81 92 98 95 99
70 74 81 84 87 92 96 98 99 99 99 100 99 100 99 96 90 86 91 92 86 85 84 83 91 94 92
82 84 85 91 96 98 99 98 99 99 100 100 99 93 100 97 96 93 87 86 83 83 89 87 88 87 99
83 90 93 97 96 96 97 97 96 93 82 85 90 96 99 99 100 100 99 98 89 85 87 82 81 90 95
91 96 98 99 98 98 98 96 99 100 99 84 80 82 90 89 100 98 98 97 97 97 100 99 96 98 96
97 100 99 98 98 98 97 97 99 100 100 87 86 96 96 94 86 100 100 100 94 88 88 97 94 91 91
100 97 97 97 96 92 93 95 96 98 100 88 97 100 94 92 75 73 75 82 89 95 96 97 95 93 93

GFSFLT2_925_rhum_069.txt.gz
RH
100 100 100 99 100 94 94 82 86 96 88 81 74 74 76 80 81 82 83 82 80 79 77 74 72 76 78
98 99 96 94 87 88 95 99 89 58 74 73 71 74 70 72 78 81 84 84 83 80 81 81 79 74 73
100 99 99 99 100 97 72 62 65 61 73 67 65 70 75 80 81 80 79 79 81 81 81 81 80 79 78
88 89 80 74 70 65 68 65 65 60 60 59 68 78 78 79 76 76 76 76 76 76 76 78 79 78 78
78 79 77 76 72 69 71 65 65 61 62 66 64 57 55 59 59 59 74 79 78 77 77 77 77 75 74
85 81 75 68 66 66 68 69 70 64 70 65 60 57 60 59 58 80 79 81 82 82 80 78 78 78 77
83 79 72 71 69 68 68 71 75 72 81 76 64 67 61 59 58 75 86 87 89 88 85 81 79 78 82
77 76 75 74 75 76 80 85 85 72 78 87 72 69 62 57 60 63 73 84 83 87 89 88 84 84 84
70 72 81 83 83 86 90 88 86 83 82 89 86 81 74 65 63 61 65 72 88 94 92 92 89 89 93
78 73 71 66 72 71 71 75 84 86 89 92 95 99 87 80 77 78 77 75 78 92 96 97 96 94 88
76 67 69 75 80 79 84 84 84 85 90 95 98 93 95 92 90 89 85 81 78 76 77 82 81 98 95
73 82 85 87 90 93 95 98 98 99 100 98 98 97 99 95 90 81 84 84 83 83 76 77 83 88 92
80 85 84 90 92 98 98 98 99 95 96 96 91 87 98 99 97 95 94 93 99 82 89 83 88 85 87
86 92 94 99 97 94 93 92 92 90 97 92 84 90 97 100 100 99 97 98 94 97 95 94 94 91 89
94 95 98 99 96 96 94 93 96 95 98 98 84 87 82 83 100 100 99 98 97 92 96 99 90 92 88
96 95 94 93 93 92 90 92 97 93 92 99 97 100 96 92 86 100 100 100 88 91 93 100 98 94 90
97 93 95 96 97 93 92 97 99 98 91 88 86 100 95 92 75 75 78 80 92 99 97 100 100 95 84

GFSFLT2_925_rhum_072.txt.gz
RH
100 99 100 100 100 100 100 100 99 99 100 99 99 88 79 78 80 81 81 81 81 79 75 74 72 70 73
100 100 100 99 100 99 100 98 98 99 99 86 78 75 76 75 74 80 82 83 79 80 76 77 78 77 75
100 100 99 98 99 98 100 100 84 63 70 80 74 71 73 76 81 81 80 82 83 83 82 82 81 80 78
97 97 96 97 92 87 77 69 66 63 61 59 62 70 81 87 85 83 78 79 80 81 81 81 80 80 77
92 84 80 80 74 72 73 70 64 62 61 58 64 64 62 58 59 58 58 83 85 82 82 81 79 79 78
87 82 78 73 71 69 68 68 67 62 70 63 61 56 59 59 56 58 87 85 87 87 86 85 84 80 80
83 81 74 71 70 69 70 71 73 71 80 68 62 61 60 59 61 64 91 93 92 90 89 89 88 88 87
74 75 76 76 75 78 79 84 83 76 78 87 76 69 62 62 61 77 93 91 91 92 95 93 89 90 87
80 80 84 85 83 87 90 94 80 79 85 91 88 87 74 68 68 86 67 63 76 94 94 95 97 94 91
78 74 71 69 68 76 72 75 80 88 92 91 95 93 88 78 73 71 65 68 72 90 92 97 97 95 94
76 69 71 79 83 84 87 89 87 85 86 91 90 92 94 89 83 80 79 75 75 76 76 73 74 98 98
76 84 86 86 89 96 91 95 97 97 93 94 99 95 97 96 94 79 81 82 85 86 73 72 77 81 90
81 82 89 92 94 96 97 96 96 96 95 92 94 94 99 99 98 99 98 95 97 82 79 78 80 80 84
91 94 95 98 99 94 94 96 92 92 91 99 98 99 100 100 100 100 97 95 92 90 88 86 85 87 88
93 92 92 93 92 91 90 90 98 96 90 92 100 100 96 98 100 100 99 98 100 92 92 100 96 94 95
92 93 94 93 93 89 92 92 100 95 94 88 87 92 91 84 81 100 100 99 94 84 91 100 99 96 89
95 92 94 94 95 93 93 96 100 98 92 88 92 100 96 94 79 76 79 80 83 96 100 100 100 97 92

GFSFLT2_925_rhum_075.txt.gz
RH
100 100 100 100 100 100 99 99 99 100 98 100 100 98 100 98 91 84 83 82 81 80 78 76 74 71 72
100 100 99 100 100 100 100 99 99 99 99 100 100 99 99 88 82 78 80 82 82 81 78 80 77 75 76
100 100 99 100 100 100 99 100 100 98 99 98 92 84 77 76 78 80 84 84 86 86 85 84 83 81 79
99 99 97 99 97 97 98 84 74 68 68 65 62 62 72 81 89 91 89 86 82 83 84 84 84 81 79
87 83 85 80 76 76 74 70 65 63 62 59 57 60 62 64 61 58 61 67 88 88 85 83 83 79 78
86 83 78 74 73 72 69 68 68 66 65 56 61 54 57 60 61 60 77 90 90 90 88 84 84 83 82
77 80 76 74 72 71 71 72 72 71 78 69 63 62 63 62 59 58 67 92 95 93 88 94 94 91 85
72 71 72 74 75 78 80 80 78 78 76 86 75 68 62 60 62 75 95 96 91 84 92 96 94 92 89
85 87 90 92 89 88 90 96 82 78 83 85 91 84 71 68 74 99 94 68 64 69 95 95 93 92 91
72 75 71 71 76 80 81 80 78 85 93 93 92 92 86 75 74 72 69 62 65 76 92 95 98 98 99
74 71 73 81 85 89 90 91 93 85 86 93 92 89 88 86 81 70 68 68 73 72 76 80 76 94 98
76 84 87 87 88 94 97 93 95 95 91 90 98 93 89 95 92 80 80 82 86 87 79 72 74 79 86
83 86 90 92 93 97 98 97 97 92 92 94 97 98 99 99 98 96 98 91 88 89 78 86 79 74 77
93 93 94 97 96 95 91 92 91 89 88 90 93 93 98 98 100 100 100 100 91 99 100 88 79 76 80
88 92 92 90 90 90 88 87 96 94 91 86 87 92 96 99 100 100 100 100 100 99 95 93 93 88 90
90 91 91 90 93 90 88 90 100 99 95 86 86 94 93 84 79 88 100 100 94 86 91 100 99 86 82
93 91 92 90 97 93 92 92 97 94 90 86 88 99 96 94 79 78 85 87 89 89 91 99 100 91 82

GFSFLT2_925_rhum_078.txt.gz
RH
100 99 99 100 99 100 100 100 100 98 96 94 94 99 99 100 98 98 99 99 96 87 80 78 77 76 73
100 100 99 99 99 99 99 98 98 98 98 99 98 99 99 98 99 97 93 85 83 81 80 79 77 78 76
100 99 100 97 98 99 99 99 96 98 97 99 98 97 95 87 82 81 82 83 88 89 88 87 85 82 80
97 98 91 96 95 95 95 90 77 69 67 68 72 73 73 76 82 88 93 92 92 87 86 86 85 83 80
80 82 85 80 77 77 74 70 67 65 61 59 56 53 49 52 53 57 59 60 80 88 89 85 83 82 78
82 81 78 75 74 73 69 68 68 67 63 55 56 52 51 52 55 56 60 86 92 92 91 90 82 88 86
68 76 77 76 74 72 72 71 71 68 73 66 61 60 64 65 63 59 58 80 94 96 92 88 93 94 94
69 69 73 78 78 82 85 86 84 84 82 84 76 68 65 63 59 64 92 97 97 91 83 91 96 96 94
84 87 85 81 91 90 88 91 85 77 84 88 92 82 72 68 75 98 99 95 76 66 93 95 96 96 94
70 71 69 69 74 79 81 83 81 82 92 91 91 93 86 76 78 76 80 74 67 68 72 87 98 96 84
70 71 75 84 88 89 92 93 91 86 90 97 89 86 88 88 82 77 73 69 62 58 68 74 75 94 90
73 77 86 88 88 88 92 97 92 96 90 95 98 92 90 96 92 82 82 82 77 76 81 78 71 75 89
82 84 89 92 91 96 95 96 96 97 94 88 93 94 99 99 97 94 96 97 100 90 80 73 76 73 70
90 90 93 95 92 93 91 91 91 90 89 87 91 95 97 95 89 99 98 98 92 98 100 97 74 73 72
91 89 88 91 88 88 89 89 95 94 89 80 82 88 93 96 100 100 93 95 93 100 100 97 85 79 76
89 89 91 91 90 88 90 94 99 97 93 85 85 88 87 79 77 81 86 86 96 100 94 100 97 73 76
89 90 92 90 93 89 88 95 98 96 91 88 91 99 98 95 79 82 82 80 85 89 84 88 94 75 81

GFSFLT2_925_rhum_081.txt.gz
RH
99 97 98 99 99 99 100 100 100 99 95 90 90 87 83 84 95 99 98 97 96 98 98 90 83 83 82
99 97 97 100 98 99 96 96 94 92 93 92 93 93 95 97 98 97 97 97 94 89 83 81 80 78 82
99 98 94 95 100 100 96 92 90 91 92 96 98 96 96 98 91 86 85 85 86 90 91 90 88 86 85
99 98 94 92 95 91 84 77 69 66 66 66 69 74 79 81 80 78 77 81 86 92 90 87 88 86 82
84 87 81 77 76 77 74 68 64 60 59 55 51 51 52 50 46 47 52 63 86 87 87 89 84 83 82
84 73 77 78 77 76 75 69 62 64 71 65 50 57 53 52 54 55 61 77 87 92 91 90 89 84 86
71 75 76 76 72 72 78 78 71 81 81 69 64 74 65 63 62 62 66 86 95 96 95 92 87 90 94
70 76 82 86 80 80 83 83 85 83 75 80 81 76 66 63 60 59 86 94 97 98 93 90 97 96 95
82 84 76 92 87 87 89 91 76 79 87 94 92 89 83 78 74 96 96 98 95 82 87 94 96 95 93
66 65 66 71 80 78 74 91 89 84 93 96 92 92 89 76 77 85 83 81 79 72 74 64 68 94 95
67 69 72 79 83 86 87 90 97 93 96 100 100 92 88 90 89 86 82 76 72 66 62 66 72 95 100
69 72 80 87 88 88 91 92 96 96 92 92 100 100 95 89 85 84 88 94 87 76 71 73 75 79 94
76 79 84 88 90 94 94 92 91 92 95 92 95 100 100 96 92 90 92 95 96 99 90 83 76 70 73
81 84 84 89 97 92 99 95 99 100 87 87 90 93 100 99 100 98 95 99 81 84 92 98 95 98 89
83 89 96 96 95 96 98 100 100 98 99 84 82 85 86 88 100 98 98 99 100 100 100 100 98 97 96
84 90 98 98 99 99 98 100 99 98 100 100 86 90 93 78 74 84 96 99 97 93 100 100 100 90 90
84 87 91 99 97 97 95 100 99 100 100 100 92 99 93 90 81 86 100 99 97 97 94 96 97 85 89

GFSFLT2_925_rhum_084.txt.gz
RH
100 96 99 100 99 99 99 100 100 99 99 95 93 95 96 91 88 92 93 93 93 93 92 96 95 95 93
100 100 97 99 99 99 98 97 97 94 94 93 92 92 90 90 92 94 91 94 94 94 91 88 85 83 80
98 100 94 93 99 95 94 89 84 83 83 86 87 88 89 95 95 89 87 86 87 88 89 91 91 90 87
88 90 87 88 83 76 71 69 67 65 62 56 56 62 73 82 83 81 79 78 86 88 92 92 87 87 86
78 80 70 64 63 65 60 58 61 66 57 54 55 56 56 58 54 48 47 56 74 85 89 87 88 85 81
67 53 57 59 61 62 65 58 52 71 61 51 61 56 63 66 56 49 53 67 84 86 89 86 87 87 86
52 54 56 65 78 83 70 68 58 62 67 53 61 58 68 67 59 56 57 63 85 95 94 88 88 87 88
65 69 76 80 78 87 79 74 73 72 77 69 66 62 67 68 64 57 68 85 91 92 97 98 94 96 93
78 69 65 88 82 83 81 79 65 62 80 80 77 78 77 75 76 93 92 90 96 97 96 96 96 96 92
70 68 71 82 92 82 86 92 83 79 86 90 86 85 85 79 86 85 82 83 80 88 90 94 93 89 85
67 72 78 84 86 88 92 97 98 91 92 97 99 95 87 84 82 86 88 86 83 89 94 80 68 79 94
69 71 78 86 98 99 98 99 100 98 99 96 98 98 95 91 84 83 85 90 96 100 100 98 91 68 95
73 83 93 100 84 92 99 93 92 92 90 90 97 97 99 94 93 91 91 92 94 99 100 100 100 100 100
77 84 94 100 99 98 100 98 99 100 98 88 87 94 99 99 97 95 96 95 98 98 100 100 98 97 96
86 89 89 90 92 94 98 99 97 95 96 98 100 100 100 100 98 94 90 92 94 99 100 100 100 99 95
89 90 90 90 90 95 98 97 96 94 94 96 99 100 94 91 88 97 93 92 95 98 99 99 99 97 92
93 93 93 92 89 88 92 95 94 92 92 96 100 99 90 86 74 84 96 96 96 91 88 89 90 91 89

GFSFLT2_925_rhum_087.txt.gz
RH
99 100 100 100 100 99 97 98 99 99 99 99 98 93 89 86 84 86 89 92 94 97 98 98 99 98 97
99 99 100 100 100 99 97 96 96 90 93 96 99 96 92 92 92 96 97 93 91 92 93 90 88 88 86
98 98 98 90 93 88 83 82 70 71 76 84 87 89 92 97 93 89 87 85 86 86 89 92 92 91 88
86 89 84 85 78 71 70 65 66 62 60 53 53 52 57 74 83 83 80 77 81 89 88 92 87 82 87
83 80 71 63 62 60 59 56 59 55 58 51 50 53 55 53 56 55 47 48 57 76 85 88 88 87 83
73 52 54 56 57 62 66 63 57 66 59 55 52 55 60 65 57 45 48 60 73 85 88 90 82 86 86
49 52 53 63 67 66 72 73 63 63 57 57 58 58 62 65 65 54 56 63 69 91 97 95 87 84 87
62 65 72 73 75 77 76 73 72 68 68 70 66 67 68 68 68 58 59 80 83 92 90 93 97 98 96
68 56 52 58 80 81 85 81 74 61 77 82 82 80 79 76 76 85 96 90 86 86 96 94 97 97 89
62 55 67 71 74 78 84 95 88 82 85 89 94 89 90 81 77 84 83 82 84 80 95 98 98 94 76
64 69 75 80 83 84 83 90 95 90 96 91 94 94 86 84 83 83 88 86 83 85 94 97 98 98 90
65 68 73 79 92 92 97 92 99 97 95 95 90 90 91 88 87 84 85 88 89 92 100 100 100 100 100
70 74 85 95 97 84 95 99 99 95 97 94 93 92 92 94 89 93 94 90 97 99 99 100 100 99 98
74 78 91 97 96 96 96 97 96 95 97 99 92 91 95 94 97 98 95 94 96 97 94 99 99 96 92
74 84 90 92 91 91 95 97 93 94 93 92 94 97 100 100 100 99 98 98 92 95 98 99 100 100 91
82 89 90 89 90 86 91 93 91 92 91 91 90 93 94 90 88 94 99 95 91 94 97 96 93 87 87
83 88 90 91 91 90 90 85 89 90 92 89 90 97 96 94 81 89 88 91 89 91 93 93 94 88 89

GFSFLT2_925_rhum_090.txt.gz
RH
100 99 100 99 99 99 96 93 96 100 89 86 85 85 90 89 85 83 84 88 90 94 97 97 99 99 99
100 99 99 100 98 97 96 92 88 91 99 97 89 86 89 89 89 91 94 93 90 91 93 89 88 92 91
98 98 98 92 91 86 79 73 64 68 79 68 78 86 96 97 95 93 90 88 88 88 90 93 92 90 90
91 93 87 82 75 72 69 63 63 60 58 54 53 52 54 72 84 86 83 80 83 88 76 77 78 78 83
88 82 74 67 66 59 59 57 64 59 48 52 50 47 57 54 56 52 50 52 54 56 68 82 82 78 84
79 73 57 57 59 61 64 61 65 65 54 46 53 54 58 58 56 49 49 56 63 73 81 86 82 80 79
52 54 57 60 64 62 70 68 67 64 44 60 61 60 65 66 66 60 55 62 67 84 97 90 88 85 86
55 57 60 60 65 61 68 67 73 67 61 71 74 65 68 70 72 69 72 82 86 94 94 86 88 92 93
63 57 55 64 76 78 84 80 78 68 73 71 88 82 73 78 73 80 90 86 85 83 82 96 92 99 98
47 45 54 71 63 72 79 83 89 85 88 74 82 87 85 84 84 82 82 81 85 86 91 97 97 98 91
62 63 70 72 74 72 70 70 86 90 99 90 90 90 88 86 85 81 84 83 85 84 83 90 100 98 99
64 68 72 79 83 85 85 89 91 93 93 95 95 91 89 90 86 84 83 84 86 86 95 100 100 100 100
65 68 71 75 87 89 82 95 98 98 96 98 98 93 89 94 91 93 92 91 92 94 98 98 99 100 100
66 73 80 86 83 79 92 94 95 90 92 97 99 99 96 94 93 97 99 97 91 89 93 98 99 99 100
67 73 82 86 87 88 90 92 95 89 88 86 90 92 94 96 100 98 100 97 87 92 94 93 96 100 96
64 75 80 88 90 90 85 88 90 88 87 90 86 91 90 88 92 99 100 94 83 89 92 94 94 91 83
66 72 79 84 90 91 90 89 88 86 86 86 88 89 97 92 81 80 96 92 94 94 88 88 91 87 87

GFSFLT2_925_rhum_093.txt.gz
RH
100 99 100 100 100 97 95 92 94 97 91 83 80 81 84 89 96 95 99 98 97 98 98 97 97 98 96
100 100 99 99 99 99 94 90 84 100 99 98 85 86 85 86 87 90 90 88 88 89 93 93 91 92 92
99 99 99 96 94 89 82 67 65 76 69 64 76 92 98 99 97 94 90 87 88 88 92 92 88 86 82
92 97 90 90 84 82 75 66 64 60 56 58 51 52 58 78 86 85 84 83 87 84 76 76 78 83 84
90 86 80 79 72 64 64 62 63 58 52 53 50 46 53 50 46 45 48 57 63 60 60 61 56 58 70
85 84 64 61 59 59 60 64 68 60 50 48 52 54 59 56 51 46 41 40 46 52 61 72 87 84 81
74 61 58 56 58 58 58 62 65 61 47 61 61 64 66 66 66 62 53 58 61 78 96 89 86 84 81
48 50 54 52 47 48 54 60 69 67 61 71 75 69 69 71 72 74 83 74 84 92 97 83 87 88 87
57 59 63 59 54 54 68 79 78 71 73 68 81 78 71 78 74 90 88 87 84 84 82 83 94 92 98
45 56 48 79 63 68 71 74 84 86 85 78 80 77 73 84 84 83 81 82 92 90 94 94 97 95 96
57 60 64 63 60 59 60 64 77 88 94 87 88 86 90 88 83 81 86 85 86 85 84 89 92 98 97
61 65 68 73 73 72 71 74 74 76 92 93 89 91 90 89 88 87 80 75 80 86 94 99 100 100 100
62 65 68 70 80 88 84 77 84 91 92 94 96 98 95 90 93 90 93 90 86 92 98 98 98 99 100
61 63 70 75 82 87 85 87 93 94 92 94 95 96 99 97 96 96 92 97 93 92 84 88 96 99 99
68 69 77 80 83 81 82 88 91 91 88 86 87 91 93 95 97 96 99 100 93 90 92 89 87 91 92
76 68 70 77 79 86 89 89 87 86 86 85 85 90 91 84 92 100 100 100 82 91 89 91 88 84 77
67 60 61 75 84 89 90 92 89 87 85 84 84 89 100 96 78 73 87 94 89 91 96 98 92 81 73

GFSFLT2_925_rhum_099.txt.gz
RH
100 100 100 99 98 96 93 90 94 99 95 86 82 83 84 86 90 95 96 97 98 96 96 92 89 86 86
99 100 99 100 99 97 93 90 92 99 93 82 89 90 88 90 85 85 86 86 88 89 96 99 97 95 95
100 100 99 100 100 100 94 86 92 85 75 80 98 99 98 99 96 90 89 82 83 88 95 97 93 93 96
97 100 99 100 98 95 74 70 68 64 59 57 62 75 94 88 85 85 87 89 89 86 85 86 86 85 86
95 99 96 100 97 92 80 69 64 55 54 50 46 48 48 43 41 48 68 79 80 77 67 55 46 42 52
90 92 93 92 92 86 76 71 65 59 50 52 48 48 49 49 50 43 39 38 41 46 47 46 46 73 82
92 92 91 83 79 73 74 66 60 58 49 48 53 55 58 60 65 62 53 54 55 66 79 74 87 85 79
87 85 80 68 65 64 58 58 62 58 49 60 63 63 64 66 67 89 80 61 72 80 87 77 82 82 83
57 61 55 53 53 50 53 55 69 66 61 61 71 71 67 66 76 98 99 98 95 83 81 79 77 82 83
72 59 57 51 48 50 43 51 69 72 67 65 76 68 78 77 76 87 86 85 91 93 89 92 87 86 90
73 71 77 67 61 62 64 61 66 66 68 70 74 70 70 86 87 84 79 78 78 81 80 80 84 93 92
50 57 70 68 60 60 60 61 63 60 62 73 69 71 75 83 73 82 86 84 82 82 80 82 83 96 99
58 57 57 60 65 67 67 65 64 64 69 78 80 81 80 79 82 83 82 81 80 80 83 87 90 93 91
55 56 62 67 71 74 78 80 83 76 81 86 89 91 92 93 89 87 85 84 88 94 97 95 91 84 80
63 59 61 65 71 76 81 89 89 72 74 84 88 91 95 96 99 92 85 88 87 90 92 90 77 77 75
76 71 64 63 66 75 84 89 86 79 77 80 84 88 88 76 79 93 98 97 100 93 87 97 85 67 74
70 70 74 75 70 75 85 91 91 85 82 83 85 84 97 96 68 91 92 92 91 87 83 89 88 76 68

GFSFLT2_925_rhum_102.txt.gz
RH
100 100 100 100 99 96 95 93 90 100 96 83 85 89 89 88 97 100 100 100 100 100 99 98 95 86 83
99 100 100 100 100 97 94 95 96 99 99 94 90 98 99 88 84 88 91 92 94 98 99 96 98 99 97
100 100 100 100 100 100 95 92 94 88 86 93 96 100 100 99 95 94 89 85 85 91 97 97 96 98 98
100 100 99 100 100 99 90 86 85 77 64 64 76 95 95 88 87 90 92 91 90 92 91 90 88 86 85
99 100 100 100 99 98 82 73 68 64 62 53 49 56 52 45 47 65 81 83 82 79 74 72 73 75 80
98 95 94 95 98 95 86 73 69 62 53 52 48 48 48 46 49 39 36 42 53 58 51 42 37 45 79
96 90 90 91 92 91 82 73 61 54 52 52 49 50 54 60 68 56 46 44 49 56 55 60 87 84 82
93 91 88 83 86 82 80 72 66 56 51 49 55 60 63 65 67 95 60 66 69 96 82 80 84 84 78
68 79 81 65 72 70 66 62 65 60 52 56 65 66 67 67 77 96 95 95 98 91 84 79 80 81 79
64 63 58 60 60 57 49 50 58 66 59 57 70 70 70 72 78 91 90 96 95 93 88 85 84 76 78
78 77 70 68 53 49 51 50 48 58 60 62 70 69 64 83 83 80 79 79 80 82 82 81 88 88 84
67 67 77 63 62 62 64 62 61 65 54 65 62 63 65 77 72 81 84 81 78 78 79 77 77 82 97
48 48 55 69 62 59 60 61 60 59 65 70 68 66 69 65 68 76 81 79 82 80 77 76 74 76 75
58 60 61 64 66 67 70 70 70 66 65 68 73 78 80 79 80 78 74 69 73 75 80 86 88 83 78
72 61 60 65 70 73 77 80 81 66 66 77 83 87 90 92 92 81 78 79 74 79 84 83 82 79 72
80 79 65 63 66 71 79 82 84 84 81 74 82 92 92 67 66 77 80 77 74 88 95 91 67 62 70
68 79 79 78 71 71 74 82 91 89 83 79 84 88 95 94 60 76 77 58 70 88 94 97 85 62 67

GFSFLT2_925_rhum_105.txt.gz
RH
100 100 100 100 100 100 96 94 100 96 84 89 91 90 84 89 95 100 100 100 100 100 100 99 98 91 83
100 99 99 100 100 100 97 99 100 97 94 99 94 98 99 86 85 93 95 96 98 99 99 100 97 91 95
100 100 100 100 100 100 96 100 98 92 91 99 100 98 99 97 91 90 90 97 97 98 99 100 100 99 96
100 100 100 100 100 99 96 92 90 84 77 81 95 98 93 88 90 94 91 89 92 89 90 90 93 94 92
100 100 100 100 99 99 95 88 83 76 66 62 66 70 56 53 68 83 88 88 86 87 86 86 84 84 83
100 99 96 99 100 99 90 77 76 69 63 59 48 46 46 46 47 37 51 76 78 76 70 61 56 67 85
100 98 93 90 91 98 92 79 72 60 58 64 52 51 49 56 66 48 44 42 45 48 47 44 58 77 69
96 97 95 92 92 92 90 80 76 61 53 65 52 60 57 60 61 78 54 58 72 84 74 82 89 83 78
74 85 87 82 84 88 88 84 74 68 54 49 59 63 64 67 77 91 89 97 97 98 84 76 81 79 82
66 68 69 68 74 74 70 70 66 76 55 52 71 66 80 68 79 86 95 99 98 94 88 81 77 76 78
71 70 71 71 61 57 55 54 47 52 50 50 64 66 60 80 74 87 91 88 88 87 83 83 87 79 75
70 74 75 68 62 55 53 51 50 49 50 58 57 57 58 78 83 76 78 78 78 77 78 78 78 92 93
53 52 56 67 61 63 62 60 59 57 59 64 65 59 61 56 64 65 74 76 78 77 75 74 73 75 77
62 56 60 60 64 61 64 67 65 63 63 65 64 67 66 66 65 65 64 68 68 74 76 75 72 73 74
74 65 62 62 68 70 72 74 74 69 67 67 70 74 74 74 73 67 71 74 69 73 79 77 75 74 74
81 80 71 63 62 66 73 78 81 76 74 68 74 88 86 57 50 65 68 69 63 72 80 92 72 55 61
64 70 78 77 70 68 71 77 84 83 79 82 78 90 86 76 52 50 73 59 62 73 94 100 86 60 64

GFSFLT2_925_rhum_108.txt.gz
RH
96 98 100 100 100 100 100 97 100 99 96 92 87 85 82 84 91 99 99 100 90 89 100 99 100 99 90
99 100 99 100 100 100 100 100 100 100 99 98 97 90 88 85 83 94 99 100 100 100 100 100 97 94 89
100 100 100 100 100 100 100 99 99 98 99 100 100 92 85 86 86 90 96 99 96 100 100 99 99 98 95
100 100 100 100 100 99 98 98 96 92 90 92 96 89 88 86 93 95 92 97 94 97 99 98 100 99 98
100 100 100 100 99 99 99 95 91 87 78 73 83 77 59 62 80 88 91 91 93 94 95 96 95 93 93
100 100 99 99 100 99 98 90 85 79 73 66 60 65 52 56 42 46 79 82 81 82 83 84 84 84 86
100 100 99 94 93 100 97 87 80 73 69 65 64 66 48 57 54 41 38 50 66 68 65 58 58 75 89
98 99 99 95 94 94 94 88 79 64 64 70 75 67 67 75 62 63 51 52 67 61 60 74 72 74 63
72 86 94 95 91 96 94 87 84 79 62 69 76 75 75 76 72 87 74 78 95 96 90 93 88 80 85
67 70 83 80 82 90 97 98 83 76 72 72 75 76 82 70 76 85 97 99 97 98 88 83 81 88 88
77 80 85 84 74 70 73 81 72 70 52 55 74 82 83 90 76 81 88 91 96 97 90 93 90 86 94
74 77 79 83 58 52 52 55 54 48 45 46 56 68 77 88 83 79 84 86 83 84 83 81 88 89 80
68 79 82 71 58 62 60 59 56 57 58 59 56 57 59 82 88 86 95 73 72 74 74 76 76 85 98
73 78 64 59 73 68 64 63 71 68 62 63 63 63 62 67 72 87 68 88 75 76 77 78 76 79 80
88 86 82 74 81 71 72 74 89 94 76 62 61 61 60 66 82 76 86 87 69 63 72 87 83 73 74
95 94 89 88 92 78 72 91 97 96 94 90 85 91 85 53 47 79 80 88 86 74 83 96 94 87 68
72 79 80 84 90 97 98 98 96 96 98 99 96 94 80 70 71 44 76 87 92 94 89 95 89 87 70

GFSFLT2_925_rhum_111.txt.gz
RH
86 88 92 100 99 100 100 99 99 98 96 94 89 84 78 80 79 92 100 97 81 84 82 92 99 100 96
97 94 97 100 99 99 99 100 100 98 98 100 98 86 77 80 77 90 98 100 99 97 100 100 99 100 98
96 98 98 100 100 99 99 99 100 100 99 100 99 88 80 85 88 90 94 99 100 100 100 100 100 99 98
82 100 99 100 100 99 99 99 98 97 95 96 96 87 81 80 91 95 96 98 99 99 100 99 99 96 98
90 100 99 99 99 99 100 98 96 93 88 81 83 79 65 62 76 86 90 94 99 99 100 99 95 96 94
96 100 99 99 100 99 100 98 93 90 86 70 67 68 60 56 43 51 81 83 86 88 91 94 94 94 92
99 100 100 99 99 100 99 95 88 77 77 71 69 65 54 44 36 35 36 65 77 76 76 80 85 87 86
94 98 99 99 97 97 96 97 84 77 70 71 72 68 65 67 52 49 41 42 47 49 55 60 70 76 85
75 79 90 97 99 98 98 94 84 78 66 65 67 71 71 76 76 74 66 60 83 78 79 82 68 64 67
66 66 81 88 94 97 99 92 81 78 76 65 74 71 80 74 79 88 96 94 98 92 82 90 75 82 82
73 77 84 84 82 83 90 100 91 79 65 62 75 72 95 87 78 84 98 89 87 94 90 89 72 83 88
71 74 75 80 68 64 65 73 75 65 51 54 56 67 74 88 88 82 90 92 81 87 85 79 89 78 79
69 72 84 85 67 60 55 56 55 53 55 56 52 58 64 76 83 77 80 74 75 78 79 78 72 72 80
72 75 77 59 63 66 68 70 73 65 63 59 61 63 60 60 74 74 72 73 69 69 70 68 68 68 69
76 84 79 74 75 78 72 74 81 90 69 63 63 62 60 66 73 63 74 73 66 57 75 74 68 66 65
88 90 86 83 85 83 74 75 86 91 86 83 67 67 62 45 42 55 67 75 76 69 67 75 73 61 60
81 86 87 87 94 93 86 90 92 88 92 87 82 84 92 93 67 50 65 69 73 85 72 74 73 63 66

GFSFLT2_925_rhum_114.txt.gz
RH
83 84 90 90 94 99 99 99 99 99 96 93 91 85 82 76 75 78 94 100 86 80 81 80 80 88 98
92 92 89 100 100 99 100 99 99 100 98 100 99 93 84 77 77 87 94 100 99 81 87 85 84 96 100
85 84 92 96 99 100 100 100 99 100 100 100 98 92 85 77 84 92 96 98 100 99 100 100 99 90 82
78 89 97 93 99 100 99 100 100 99 98 97 96 91 78 68 79 92 97 98 98 100 100 100 100 99 98
82 96 99 97 99 100 100 100 98 97 94 90 83 83 72 60 55 82 92 98 99 99 98 98 99 100 99
87 96 98 100 99 100 100 99 97 93 92 86 72 71 68 57 40 43 80 89 95 100 96 98 96 93 92
97 99 99 100 100 100 100 99 94 86 84 76 69 66 64 52 43 36 37 78 80 84 91 97 95 94 96
88 96 99 100 99 99 99 99 95 88 78 70 72 68 63 55 49 50 46 44 64 73 72 83 86 87 87
65 75 80 88 96 99 99 99 92 84 75 66 70 64 65 59 54 55 59 69 71 63 82 74 73 76 81
56 60 66 85 99 100 98 96 87 83 78 66 72 58 64 71 70 78 77 93 92 87 97 76 77 66 74
69 70 82 80 88 98 92 99 92 81 74 75 76 73 91 82 75 85 98 87 97 99 86 78 76 82 82
72 73 76 77 72 69 78 85 98 95 74 55 54 63 74 86 72 66 92 94 86 89 85 77 75 78 86
69 70 76 79 76 65 56 61 64 65 61 56 56 56 62 64 81 78 71 71 76 74 81 80 74 76 73
70 70 73 76 72 63 63 62 63 61 59 60 59 56 57 64 79 60 54 57 60 79 78 75 72 69 67
75 77 78 72 65 77 73 71 71 78 61 61 64 64 63 63 60 53 51 57 51 52 66 64 60 61 61
80 79 83 81 78 82 80 72 72 73 87 76 66 62 58 44 40 42 46 52 58 64 63 65 54 48 50
79 84 88 90 89 89 82 74 75 78 90 94 87 73 91 92 57 49 49 50 65 75 67 67 57 42 44

GFSFLT2_925_rhum_117.txt.gz
RH
90 92 90 89 85 93 99 96 99 98 98 96 93 92 88 79 77 75 93 96 99 96 82 82 84 89 88
92 90 90 86 84 94 99 99 100 100 100 98 98 95 86 81 71 80 94 97 100 97 86 82 82 80 86
86 88 87 82 84 90 98 100 100 100 99 100 99 96 87 76 66 80 96 97 100 99 86 88 89 88 98
85 83 85 88 90 92 97 98 98 99 99 100 98 93 84 72 58 71 94 100 99 100 100 100 83 72 74
85 91 93 98 98 94 100 99 98 98 97 95 91 84 78 70 51 48 83 98 100 100 99 100 100 99 86
82 85 86 96 99 100 100 99 98 94 95 93 85 75 70 66 50 29 62 87 99 100 100 99 98 100 100
86 89 94 98 100 100 100 100 98 92 86 84 76 69 68 66 54 34 28 72 84 96 99 100 97 86 95
85 93 99 100 100 99 100 100 98 93 86 75 73 70 68 60 52 44 33 33 72 76 90 95 98 99 100
68 70 78 82 92 100 100 100 97 91 86 75 70 69 65 58 54 59 53 43 43 62 81 84 89 89 93
59 61 63 79 98 100 100 99 93 86 81 73 70 70 51 61 65 69 69 92 76 67 74 76 77 78 85
63 68 71 72 90 100 98 98 97 91 80 73 74 74 66 82 68 74 84 88 98 96 96 84 72 66 65
65 68 73 72 71 71 80 87 98 97 84 83 63 63 64 76 65 67 85 87 85 87 81 85 90 85 83
67 69 74 77 77 72 59 59 66 71 94 88 66 61 64 62 74 70 67 75 77 72 71 83 80 88 89
67 66 69 72 71 66 57 55 56 56 58 60 62 61 59 63 72 68 52 59 55 74 75 73 78 75 74
78 75 75 77 70 61 67 67 69 67 60 60 65 63 62 63 62 51 52 57 51 53 57 61 61 67 67
84 80 78 79 77 73 80 79 72 65 71 74 68 64 57 43 43 48 50 50 53 61 64 63 50 44 51
76 75 82 85 87 83 84 88 80 72 74 91 91 84 78 83 46 48 51 44 45 52 63 68 62 45 45

GFSFLT2_925_rhum_120.txt.gz
RH
93 98 96 94 92 90 88 86 95 98 100 100 98 95 93 85 73 69 71 95 94 98 90 86 84 89 82
95 96 93 90 84 82 80 86 95 100 100 99 98 100 93 84 72 63 72 95 99 94 88 91 82 85 87
92 93 91 87 86 82 79 78 89 95 99 100 100 99 93 83 69 58 70 95 100 100 100 94 83 85 86
87 88 89 92 86 86 83 85 88 92 96 98 99 98 92 79 66 48 61 94 100 100 100 88 93 93 90
88 92 91 92 92 96 95 96 94 94 95 95 95 92 85 74 66 47 37 88 100 100 100 100 86 83 80
86 87 88 87 95 99 100 99 98 93 92 89 90 86 77 68 68 51 26 73 95 100 100 100 100 100 96
83 83 86 90 98 100 100 100 99 96 92 86 81 75 70 68 59 48 32 40 81 95 100 99 98 100 99
83 88 91 96 98 98 100 100 99 98 92 82 76 72 71 68 55 43 38 35 66 79 91 98 96 100 100
77 76 79 83 89 98 99 100 99 96 90 82 75 71 70 68 58 47 46 54 53 75 78 87 94 100 100
65 59 57 66 86 100 100 100 98 90 86 81 71 73 51 47 58 59 60 63 74 95 83 78 82 88 99
60 64 64 66 86 98 99 98 99 91 82 74 74 71 72 64 58 64 71 75 75 77 90 81 73 72 81
61 62 65 66 68 75 91 94 95 97 96 85 74 58 60 60 62 60 70 80 84 74 70 70 70 70 70
60 63 67 72 77 74 66 62 71 81 94 90 92 75 64 58 68 64 56 67 79 87 84 77 70 74 81
55 64 66 71 76 78 66 55 56 59 64 75 75 68 60 60 64 64 62 54 50 71 76 77 75 73 70
71 69 65 70 75 75 68 64 67 66 63 62 65 64 62 58 59 53 55 61 52 56 56 57 61 66 68
77 76 74 75 80 76 79 80 73 71 72 78 75 67 56 43 47 55 61 54 48 51 58 58 44 43 47
82 84 83 81 85 84 79 86 81 75 75 81 91 88 77 85 51 54 60 54 52 51 55 66 60 44 50

GFSFLT2_925_rhum_123.txt.gz
RH
95 98 100 100 94 91 86 82 86 91 100 98 100 100 97 90 83 68 64 62 94 99 92 88 86 79 85
95 100 99 98 94 87 84 81 80 89 99 98 98 99 97 91 82 66 61 68 95 99 100 93 86 83 87
97 97 98 94 90 85 82 79 76 85 96 98 98 99 99 93 80 65 54 65 94 100 100 94 90 83 87
90 94 91 92 88 87 85 79 81 88 89 93 97 98 96 88 76 66 52 52 94 100 100 100 93 93 89
89 94 93 93 90 90 93 91 88 90 91 92 93 94 91 82 70 69 59 36 91 100 100 94 85 83 75
88 91 88 89 89 93 99 99 97 92 87 84 83 84 82 74 68 58 50 28 82 95 100 100 100 99 93
80 82 82 82 87 98 99 99 97 97 94 87 82 78 74 70 67 56 40 26 73 92 96 99 100 100 95
81 80 82 84 93 98 97 99 99 99 96 89 81 75 71 70 68 58 42 34 56 81 94 97 100 100 100
79 82 86 90 99 99 99 100 99 98 93 88 80 74 71 71 72 57 50 55 52 80 84 95 100 100 99
74 70 68 73 88 93 97 100 99 93 91 86 75 75 69 47 50 57 61 69 73 71 78 81 91 100 100
71 65 64 66 78 99 99 100 99 96 83 78 73 63 72 66 53 58 67 79 80 75 61 65 74 84 94
68 66 68 68 72 88 97 95 95 100 98 86 83 66 56 52 53 56 70 80 86 84 83 62 52 60 70
67 60 59 67 72 70 66 68 80 93 98 95 89 89 81 59 60 60 58 64 74 78 86 80 74 65 58
62 59 66 71 77 76 72 60 56 61 66 84 93 94 78 60 61 59 64 56 52 62 80 75 75 69 66
60 60 66 67 75 83 76 62 59 62 59 62 66 66 65 64 60 53 56 62 60 58 56 52 58 62 63
68 67 66 67 74 82 75 72 69 68 71 72 69 69 63 53 58 62 62 55 56 59 63 61 46 43 44
76 73 76 75 82 86 86 92 85 82 76 73 85 88 77 84 60 63 67 56 54 52 52 57 55 44 50

GFSFLT2_925_rhum_126.txt.gz
RH
100 99 100 100 97 95 91 80 76 81 93 98 96 98 100 95 87 78 63 60 60 91 94 99 96 92 86
99 100 100 100 100 96 86 81 79 77 92 98 98 98 98 97 88 76 64 60 64 96 100 99 89 90 85
98 100 100 100 100 94 85 82 80 78 84 96 97 97 98 96 87 73 65 58 64 98 100 99 93 80 83
92 98 99 98 97 89 88 85 79 82 89 90 93 98 97 92 83 69 68 59 63 98 97 100 88 81 90
90 96 96 96 92 89 88 88 85 87 88 89 91 92 93 86 74 65 59 51 54 97 100 97 86 78 76
88 94 90 86 86 86 93 100 98 93 86 85 85 84 82 77 69 66 58 39 44 96 100 100 98 86 81
79 81 79 76 80 91 97 99 96 96 95 89 85 80 76 72 69 67 62 33 37 90 99 100 100 95 92
75 77 78 77 82 85 94 99 99 98 98 93 86 78 75 71 70 69 61 33 43 83 98 100 100 100 100
78 81 83 85 87 93 99 99 100 96 94 92 85 78 74 72 61 70 51 46 59 79 90 99 100 100 100
80 80 82 89 92 98 97 99 98 94 91 91 79 71 75 56 47 54 53 54 67 68 80 90 100 100 100
76 73 70 72 82 94 96 99 99 97 84 86 73 64 61 69 53 47 58 67 70 75 75 76 88 100 99
76 72 71 71 77 87 98 99 98 98 95 85 82 81 53 47 45 54 60 74 78 75 81 71 71 80 98
77 72 68 67 69 82 91 91 92 97 95 99 96 88 86 71 54 54 55 57 72 76 74 66 71 71 70
74 69 66 71 74 72 70 66 65 73 80 90 93 93 91 88 64 58 57 58 53 62 75 65 62 64 69
75 68 67 71 79 81 80 68 56 59 63 67 79 85 80 68 59 52 53 55 56 54 55 53 50 56 60
77 64 62 68 75 86 83 72 61 64 67 65 69 73 66 57 57 62 63 60 56 53 55 59 44 41 43
86 69 64 74 81 89 89 80 82 77 75 73 80 70 81 83 66 59 62 58 54 51 48 48 47 44 46